Pleiades-Orpheus

operational
NORAD ID: 62387 Int'l Des: NNA 2024-247 Owner: BRONC Country: US
LEOCIRCULAR

关于 Pleiades-Orpheus

正在加载描述...

实时位置

正在加载3D地球...

即将过境

高度历史

Altitude vs Time

uPlot chart will show altitude changes over time

两行轨道根数

1 62387U 24247L 25340.44967454 .00045950 00000-0 12298-2 0 9999
2 62387 44.9927 249.3571 0007411 155.6813 204.4424 15.37358214 53676
Epoch: Dec 6, 2025 • Age: 25 hours

当前状态

高度 456.9 km
速度 7.64 km/s
星下点 36.80°N, 35.23°E
发射日期 Dec 21, 2024
运行时间 0.9 years
类型 other

技术详情

分类 Payload
质量 1.00 kg
干质量 1.00 kg
总质量 1.00 kg
长度 0.10 m
直径 0.10 m
跨度 0.10 m
形状 Box
制造商 BRONC/STANSI
平台类型 Cubesat 1U
阶段状态 In Orbit
所有者/国家 BRONC/US

大型星座

Loading constellations...